TimeCDT,TemperatureF,Dew PointF,Humidity,Sea Level PressureIn,VisibilityMPH,Wind Direction,Wind SpeedMPH,Gust SpeedMPH,PrecipitationIn,Events,Conditions,WindDirDegrees,DateUTC
12:15 AM,50.5,36.5,59,30.02,10.0,NW,9.2,-,N/A,,Clear,310,2013-10-07 05:15:00
12:35 AM,50.5,36.9,59,30.02,10.0,NW,9.2,-,N/A,,Clear,310,2013-10-07 05:35:00
12:55 AM,50.5,36.9,59,30.02,10.0,NW,10.4,-,N/A,,Clear,310,2013-10-07 05:55:00
1:15 AM,49.8,36.9,61,30.02,10.0,NW,8.1,-,N/A,,Clear,320,2013-10-07 06:15:00
1:35 AM,49.1,37.8,65,30.02,10.0,NW,8.1,-,N/A,,Clear,320,2013-10-07 06:35:00
1:55 AM,48.0,38.3,69,30.02,10.0,NNW,5.8,-,N/A,,Clear,330,2013-10-07 06:55:00
2:15 AM,47.3,38.5,71,30.03,10.0,NW,8.1,-,N/A,,Clear,310,2013-10-07 07:15:00
2:35 AM,48.2,39.2,71,30.04,10.0,NW,6.9,-,N/A,,Clear,310,2013-10-07 07:35:00
2:55 AM,47.1,39.2,74,30.04,10.0,NW,6.9,-,N/A,,Clear,310,2013-10-07 07:55:00
3:15 AM,46.8,39.4,75,30.04,10.0,WNW,5.8,-,N/A,,Clear,300,2013-10-07 08:15:00
3:35 AM,47.7,39.4,73,30.03,10.0,WNW,6.9,-,N/A,,Clear,300,2013-10-07 08:35:00
3:55 AM,47.3,39.4,74,30.03,10.0,WNW,6.9,-,N/A,,Clear,290,2013-10-07 08:55:00
4:15 AM,47.7,39.0,72,30.04,10.0,WNW,8.1,-,N/A,,Clear,290,2013-10-07 09:15:00
4:35 AM,47.3,38.5,71,30.04,10.0,WNW,6.9,-,N/A,,Clear,300,2013-10-07 09:35:00
4:55 AM,47.3,37.8,69,30.04,10.0,WNW,5.8,-,N/A,,Clear,300,2013-10-07 09:55:00
5:15 AM,45.7,37.4,73,30.04,10.0,WNW,3.5,-,N/A,,Clear,290,2013-10-07 10:15:00
5:35 AM,45.9,37.8,73,30.04,10.0,West,6.9,-,N/A,,Clear,280,2013-10-07 10:35:00
5:55 AM,45.1,37.6,75,30.04,10.0,West,5.8,-,N/A,,Clear,270,2013-10-07 10:55:00
6:15 AM,45.1,37.4,74,30.05,10.0,West,5.8,-,N/A,,Clear,260,2013-10-07 11:15:00
6:35 AM,44.6,37.4,76,30.05,10.0,WSW,4.6,-,N/A,,Clear,240,2013-10-07 11:35:00
6:55 AM,44.6,37.2,75,30.05,10.0,West,8.1,-,N/A,,Clear,260,2013-10-07 11:55:00
7:15 AM,45.1,36.9,73,30.05,10.0,West,8.1,-,N/A,,Clear,260,2013-10-07 12:15:00
7:35 AM,46.0,36.7,70,30.05,10.0,West,5.8,-,N/A,,Clear,270,2013-10-07 12:35:00
7:55 AM,43.7,37.2,78,30.06,10.0,Calm,Calm,-,N/A,,Clear,0,2013-10-07 12:55:00
8:15 AM,45.1,37.8,75,30.06,10.0,SW,4.6,-,N/A,,Clear,220,2013-10-07 13:15:00
8:35 AM,46.0,37.9,73,30.07,10.0,WSW,4.6,-,N/A,,Clear,240,2013-10-07 13:35:00
8:55 AM,47.1,38.5,72,30.07,10.0,WSW,4.6,-,N/A,,Clear,250,2013-10-07 13:55:00
9:15 AM,49.5,39.4,68,30.07,10.0,WSW,4.6,-,N/A,,Clear,240,2013-10-07 14:15:00
9:35 AM,52.0,40.1,64,30.08,10.0,West,3.5,-,N/A,,Clear,260,2013-10-07 14:35:00
9:55 AM,54.5,40.8,60,30.08,10.0,SW,4.6,-,N/A,,Clear,220,2013-10-07 14:55:00
10:15 AM,56.5,40.8,56,30.08,10.0,SSW,3.5,-,N/A,,Clear,210,2013-10-07 15:15:00
10:35 AM,61.5,38.5,43,30.08,10.0,SW,8.1,-,N/A,,Clear,220,2013-10-07 15:35:00
10:55 AM,64.4,37.6,37,30.08,10.0,WSW,9.2,-,N/A,,Clear,240,2013-10-07 15:55:00
11:15 AM,66.9,34.0,30,30.08,10.0,SW,11.5,-,N/A,,Clear,230,2013-10-07 16:15:00
11:35 AM,67.8,33.1,28,30.08,10.0,SW,9.2,16.1,N/A,,Clear,230,2013-10-07 16:35:00
11:55 AM,68.7,32.5,26,30.08,10.0,WSW,11.5,-,N/A,,Clear,240,2013-10-07 16:55:00
12:15 PM,69.8,32.9,26,30.07,10.0,SW,12.7,19.6,N/A,,Clear,230,2013-10-07 17:15:00
12:35 PM,70.5,33.8,26,30.07,10.0,WSW,10.4,18.4,N/A,,Clear,240,2013-10-07 17:35:00
12:55 PM,71.2,34.2,26,30.06,10.0,WSW,11.5,17.3,N/A,,Clear,240,2013-10-07 17:55:00
1:15 PM,71.6,32.7,24,30.06,10.0,WSW,15.0,21.9,N/A,,Clear,250,2013-10-07 18:15:00
1:35 PM,73.4,34.7,24,30.04,10.0,WSW,10.4,17.3,N/A,,Clear,240,2013-10-07 18:35:00
1:55 PM,73.0,34.0,24,30.04,10.0,WSW,8.1,17.3,N/A,,Clear,240,2013-10-07 18:55:00
2:15 PM,74.1,35.1,24,30.02,10.0,SW,11.5,17.3,N/A,,Clear,230,2013-10-07 19:15:00
2:35 PM,74.8,35.2,24,30.02,10.0,WSW,6.9,17.3,N/A,,Clear,240,2013-10-07 19:35:00
2:55 PM,75.4,36.3,24,30.01,10.0,SW,10.4,16.1,N/A,,Clear,220,2013-10-07 19:55:00
3:15 PM,75.6,35.4,23,30.01,10.0,SSW,11.5,-,N/A,,Clear,210,2013-10-07 20:15:00
3:35 PM,76.1,35.6,23,30.00,10.0,SW,10.4,16.1,N/A,,Clear,220,2013-10-07 20:35:00
3:55 PM,76.1,36.3,24,30.00,10.0,SW,12.7,17.3,N/A,,Clear,230,2013-10-07 20:55:00
4:15 PM,76.1,35.8,23,29.99,10.0,SW,10.4,18.4,N/A,,Clear,230,2013-10-07 21:15:00
4:35 PM,76.1,36.5,24,29.99,10.0,SW,9.2,-,N/A,,Clear,230,2013-10-07 21:35:00
4:55 PM,76.1,35.6,23,29.98,10.0,SW,9.2,-,N/A,,Clear,230,2013-10-07 21:55:00
5:15 PM,75.9,35.6,23,29.98,10.0,SW,12.7,18.4,N/A,,Clear,220,2013-10-07 22:15:00
5:35 PM,75.2,36.7,25,29.98,10.0,SW,9.2,-,N/A,,Clear,220,2013-10-07 22:35:00
5:55 PM,74.3,37.0,26,29.98,10.0,SSW,8.1,-,N/A,,Clear,200,2013-10-07 22:55:00
6:15 PM,71.8,39.7,31,29.98,10.0,SSW,6.9,-,N/A,,Clear,200,2013-10-07 23:15:00
6:35 PM,68.4,41.0,37,29.98,10.0,South,8.1,-,N/A,,Clear,180,2013-10-07 23:35:00
6:55 PM,64.9,41.5,42,29.98,10.0,South,8.1,-,N/A,,Clear,170,2013-10-07 23:55:00
7:15 PM,61.9,42.4,49,29.98,10.0,South,5.8,-,N/A,,Clear,170,2013-10-08 00:15:00
7:35 PM,59.7,41.9,52,29.98,10.0,South,6.9,-,N/A,,Clear,170,2013-10-08 00:35:00
7:55 PM,57.2,42.3,57,29.98,10.0,South,6.9,-,N/A,,Clear,170,2013-10-08 00:55:00
8:15 PM,56.1,42.4,60,29.99,10.0,South,6.9,-,N/A,,Clear,170,2013-10-08 01:15:00
8:35 PM,54.9,42.3,63,29.99,10.0,South,8.1,-,N/A,,Clear,170,2013-10-08 01:35:00
8:55 PM,55.2,42.4,62,29.99,10.0,SSE,8.1,-,N/A,,Clear,160,2013-10-08 01:55:00
9:15 PM,54.1,42.1,64,29.99,10.0,South,8.1,-,N/A,,Clear,170,2013-10-08 02:15:00
9:35 PM,53.1,42.4,67,30.00,10.0,South,8.1,-,N/A,,Clear,170,2013-10-08 02:35:00
9:55 PM,52.9,42.6,68,30.00,10.0,South,6.9,-,N/A,,Clear,170,2013-10-08 02:55:00
10:15 PM,51.8,42.1,69,30.00,10.0,South,8.1,-,N/A,,Clear,170,2013-10-08 03:15:00
10:35 PM,51.4,41.9,70,30.00,10.0,SSE,9.2,-,N/A,,Clear,160,2013-10-08 03:35:00
10:55 PM,50.5,41.5,71,29.99,10.0,SSE,9.2,-,N/A,,Clear,160,2013-10-08 03:55:00
11:15 PM,49.8,41.4,73,29.99,10.0,SSE,6.9,-,N/A,,Clear,150,2013-10-08 04:15:00
11:35 PM,49.5,41.2,73,29.99,10.0,South,5.8,-,N/A,,Clear,170,2013-10-08 04:35:00
11:55 PM,48.6,41.2,76,29.99,10.0,South,5.8,-,N/A,,Clear,170,2013-10-08 04:55:00